Temp
65 63 64 64 64 64 62 62 63 64 66 68 68 69 69 69 68 70 70 70 69 71 72 69 68 67 67 70 67 66 64 63 61 62 64 64 64 64 65 65 65 64 64
66 64 64 63 63 62 63 63 62 63 66 67 69 70 70 71 68 68 72 75 73 71 72 72 72 73 70 70 67 66 65 63 62 60 61 62 62 64 64 63 65 67 65
67 66 62 61 62 61 62 62 62 62 63 64 69 68 70 71 70 70 71 74 74 71 72 73 72 70 71 69 67 66 65 66 64 61 60 61 61 62 61 61 62 62 64
64 63 61 61 60 61 61 62 62 63 62 64 65 68 70 71 73 72 74 73 75 74 72 72 72 71 72 70 66 66 65 64 62 61 60 60 60 61 60 58 58 61 63
64 66 64 61 61 61 60 61 62 61 63 64 65 67 68 70 73 73 73 73 71 73 72 73 72 70 67 69 69 66 65 62 61 60 59 59 59 58 58 58 58 61 61
63 61 62 62 62 60 59 59 59 59 59 61 62 64 65 70 61 57 64 74 73 73 71 73 71 63 63 61 62 62 65 63 61 59 59 58 58 59 59 58 58 58 57
61 62 63 62 62 61 61 58 57 56 57 59 60 61 63 65 56 54 56 65 68 72 71 71 67 68 64 65 56 55 57 58 62 62 60 59 59 61 59 58 57 56 57
61 64 66 65 64 63 60 58 55 55 56 57 58 60 61 63 55 53 53 62 67 72 71 69 68 63 64 65 64 63 61 61 60 63 62 61 61 62 61 61 59 59 59
61 63 65 66 65 63 60 58 57 56 56 57 60 59 59 61 53 51 54 62 67 71 70 69 67 65 54 54 67 62 60 56 50 50 50 49 46 48 56 60 59 58 56
58 60 62 65 66 65 64 61 60 58 58 59 60 59 57 58 55 51 53 62 66 69 67 67 58 64 50 53 64 62 59 57 57 56 55 54 52 53 51 60 59 57 57
57 58 59 59 59 61 64 64 60 56 57 56 56 57 58 58 58 51 52 60 67 69 66 64 64 52 49 50 55 62 60 60 56 58 58 59 58 57 58 58 59 58 56
55 56 57 57 57 57 56 56 58 57 54 53 53 54 57 57 55 53 50 48 60 67 64 63 59 48 46 49 55 47 49 55 59 57 58 59 58 58 58 59 60 60 60
53 53 53 53 53 54 53 53 52 54 54 53 53 51 52 56 59 51 47 47 52 65 64 57 46 43 44 47 45 46 50 59 57 55 56 56 57 61 59 59 60 61 61
50 51 52 51 50 51 51 51 51 51 52 53 51 50 52 56 61 56 56 55 52 55 50 51 50 51 54 50 51 51 59 59 58 56 56 57 59 58 58 59 59 58 59
49 50 50 51 51 51 51 51 52 53 54 52 51 52 54 60 61 57 59 61 60 56 55 58 58 57 55 55 55 57 57 58 59 57 58 58 59 57 56 59 59 58 57
49 50 52 51 50 50 51 49 46 49 46 47 49 54 62 58 49 48 49 48 47 49 61 59 57 57 57 57 57 56 58 57 58 58 60 60 59 58 57 58 58 59 58
51 55 52 51 49 49 49 48 48 47 44 46 45 48 49 48 44 47 48 48 47 54 61 59 58 58 57 58 57 58 57 58 58 57 57 60 59 58 55 57 57 55 57
56 50 56 56 54 54 53 53 53 52 53 53 45 49 46 45 47 48 47 52 60 59 61 59 58 58 57 57 57 59 58 58 58 57 56 57 59 58 56 56 56 56 56
56 58 60 60 60 58 60 59 59 58 55 53 53 48 46 46 46 46 50 63 61 59 59 58 59 59 60 59 61 62 61 58 58 57 56 57 59 56 54 57 56 45 48
55 52 56 61 60 60 59 59 59 58 59 59 57 53 54 58 62 61 63 63 62 60 59 58 62 62 59 61 61 59 57 58 57 57 56 59 59 56 57 57 57 52 51
54 61 51 60 60 61 60 59 59 59 58 57 58 56 46 62 61 62 62 62 62 61 62 60 61 63 62 63 60 59 59 61 58 57 59 60 56 55 56 59 57 55 56
56 61 63 62 62 62 60 59 59 60 60 59 58 51 44 63 61 58 58 57 57 59 62 60 60 62 62 60 59 61 61 59 58 58 57 57 58 57 59 58 58 58 56
57 63 64 64 62 53 59 59 60 61 62 61 59 59 59 58 56 53 51 50 51 50 52 54 55 56 56 55 55 59 60 59 59 60 61 59 58 59 58 58 58 57 56
61 63 64 62 62 62 61 59 59 55 58 57 56 54 52 51 49 48 47 46 46 46 47 48 48 48 49 50 50 51 54 57 61 61 60 59 58 56 56 57 57 56 52
62 62 62 61 62 62 62 61 58 56 54 52 50 49 47 46 44 43 43 44 43 43 43 44 44 45 46 47 48 47 39 40 53 46 56 55 52 52 52 52 52 52 52
62 62 61 60 60 59 55 53 52 52 50 48 47 46 44 42 42 41 41 41 41 41 41 41 42 42 43 41 41 37 38 39 44 41 52 51 50 50 50 50 50 49 49
MSLP
1004.38 1004.68 1005.11 1005.44 1005.37 1005.57 1005.82 1006.02 1006.13 1006.06 1005.99 1005.68 1005.55 1005.29 1005.28 1005.44 1005.20 1005.58 1005.54 1005.44 1006.00 1005.42 1004.92 1005.24 1005.36 1005.78 1006.99 1007.12 1007.24 1007.67 1008.00 1008.27 1008.69 1008.57 1008.55 1008.60 1009.11 1008.86 1009.10 1009.26 1009.41 1009.36 1009.44
1003.42 1003.84 1004.28 1004.56 1004.83 1005.25 1005.34 1005.08 1005.27 1005.50 1005.55 1005.51 1005.34 1005.06 1004.91 1004.85 1004.82 1004.84 1004.45 1003.83 1003.91 1004.07 1004.32 1004.28 1004.03 1004.60 1005.81 1005.70 1006.37 1007.03 1007.52 1007.46 1007.49 1008.20 1008.50 1008.80 1009.01 1008.84 1009.08 1009.48 1009.53 1009.14 1009.14
1002.44 1002.85 1003.39 1003.77 1004.01 1004.37 1004.69 1004.75 1004.83 1004.76 1004.79 1004.68 1004.74 1004.90 1004.61 1004.22 1004.12 1003.97 1003.37 1003.12 1002.92 1002.86 1003.11 1003.21 1003.41 1004.23 1004.48 1005.02 1005.58 1006.48 1006.73 1006.96 1006.60 1007.44 1008.17 1008.76 1008.94 1008.93 1009.23 1009.46 1009.45 1009.28 1009.10
1001.42 1001.91 1002.35 1002.68 1002.94 1003.33 1003.49 1003.73 1004.07 1004.32 1004.38 1004.55 1004.32 1004.16 1003.99 1003.80 1003.53 1003.03 1002.27 1002.07 1001.80 1001.74 1002.02 1002.14 1003.16 1003.34 1003.67 1004.20 1004.85 1005.65 1006.00 1006.44 1006.38 1007.08 1007.90 1008.62 1008.75 1008.89 1008.96 1009.41 1009.49 1009.18 1009.21
1000.53 1000.87 1001.36 1001.70 1002.02 1002.26 1002.49 1002.80 1003.00 1003.44 1003.44 1003.74 1003.92 1003.66 1003.40 1002.96 1002.84 1001.97 1001.57 1001.34 1001.20 1001.31 1001.52 1001.40 1001.87 1002.36 1002.96 1003.28 1003.85 1004.41 1005.50 1006.06 1006.45 1007.16 1007.93 1008.45 1008.58 1008.82 1008.91 1008.96 1009.08 1009.13 1009.28
1000.10 1000.31 1000.22 1000.49 1001.02 1001.34 1001.66 1001.91 1002.08 1002.62 1002.56 1002.78 1002.98 1002.72 1002.57 1002.09 1001.78 1001.50 1001.47 1000.95 1000.84 1000.76 1001.00 1000.75 1001.12 1001.69 1002.44 1002.76 1003.22 1003.68 1004.73 1005.22 1006.07 1006.77 1007.48 1007.81 1008.05 1008.14 1008.42 1008.63 1008.84 1009.21 1009.45
1000.12 1000.02 1000.09 1000.16 1000.30 1000.51 1000.68 1001.00 1001.34 1001.56 1001.88 1002.01 1002.19 1002.24 1001.70 1001.58 1001.26 1001.32 1001.18 1001.10 1000.65 1000.38 1000.30 1000.39 1000.94 1001.50 1002.23 1002.75 1003.36 1004.03 1004.61 1004.96 1004.97 1005.94 1006.73 1007.07 1007.34 1007.42 1007.85 1008.17 1008.35 1008.58 1008.76
999.17 999.12 999.10 999.20 999.24 999.31 999.71 999.93 1000.07 1000.42 1000.70 1001.21 1001.45 1001.62 1001.54 1001.17 1001.07 1000.88 1000.64 1000.50 1000.21 999.60 999.46 999.92 1000.74 1001.45 1001.72 1002.46 1003.32 1004.58 1004.89 1005.10 1005.41 1005.79 1006.11 1006.43 1006.56 1006.89 1007.08 1007.14 1007.55 1008.18 1008.60
997.77 997.53 997.54 997.60 997.64 997.86 998.24 998.67 999.04 999.49 999.80 1000.07 1000.23 1000.49 1000.77 1000.71 1000.68 1000.44 1000.32 1000.19 999.45 998.52 999.13 999.47 1000.44 1001.12 1001.77 1001.88 1003.30 1004.27 1004.96 1005.55 1005.71 1005.98 1006.11 1006.14 1006.48 1006.65 1006.72 1007.12 1007.71 1008.14 1008.61
996.92 996.60 996.49 996.40 996.32 996.19 996.40 996.84 997.44 998.08 998.59 999.16 999.33 999.56 999.82 999.85 999.64 1000.04 1000.06 999.58 998.38 998.09 998.54 999.04 999.39 1000.43 1001.60 1002.03 1002.91 1003.99 1004.90 1005.46 1005.95 1006.38 1006.21 1006.43 1006.74 1006.64 1006.60 1006.60 1007.12 1007.61 1008.07
995.76 995.54 995.38 995.28 995.16 995.09 994.93 995.33 995.93 996.70 997.32 997.85 998.40 998.64 998.91 999.07 998.67 998.56 998.40 998.37 997.87 997.58 998.16 999.04 999.44 1000.26 1001.16 1001.81 1002.60 1003.34 1003.98 1004.89 1005.84 1005.75 1006.04 1006.54 1006.81 1006.71 1006.78 1006.78 1006.89 1007.18 1007.65
994.57 994.30 993.95 993.56 993.35 993.55 993.76 994.06 994.76 995.31 996.00 996.73 997.34 997.66 997.82 997.79 997.52 997.20 996.98 997.54 996.94 997.16 997.90 998.64 999.71 1000.41 1001.34 1002.11 1002.62 1003.19 1003.62 1004.58 1005.30 1005.74 1006.16 1006.65 1006.67 1006.63 1006.57 1006.72 1006.84 1007.05 1007.09
993.06 992.42 991.96 991.80 991.78 991.77 991.91 992.49 993.39 994.17 994.71 995.47 996.22 996.70 996.91 996.61 996.32 995.72 996.08 996.65 996.50 996.95 997.50 998.41 999.92 1000.44 1001.50 1002.40 1002.82 1003.15 1003.85 1004.34 1005.04 1005.75 1006.35 1006.51 1006.36 1006.08 1006.29 1006.58 1006.70 1006.92 1007.04
991.15 990.13 989.32 988.62 988.12 988.36 989.26 990.11 991.05 992.20 993.04 993.94 995.08 995.47 995.64 995.50 994.78 995.08 995.84 996.43 996.45 996.92 998.49 999.54 999.98 1000.59 1001.21 1002.42 1003.27 1003.74 1003.78 1003.95 1004.74 1005.64 1006.14 1006.14 1006.04 1006.14 1006.39 1006.39 1006.62 1006.92 1007.10
989.02 987.77 986.50 985.46 984.21 982.83 983.64 985.90 987.86 989.88 991.35 992.50 993.43 994.10 994.10 993.61 993.55 994.20 994.74 995.46 996.32 996.90 998.31 999.52 1000.54 1001.07 1002.10 1002.82 1003.30 1003.59 1003.56 1004.07 1004.86 1005.52 1005.77 1005.86 1005.94 1006.16 1006.52 1006.49 1006.65 1006.91 1007.24
987.31 985.42 983.99 983.49 982.56 979.77 980.44 984.05 986.86 988.89 990.37 991.44 992.26 992.67 992.48 992.02 992.74 993.44 993.82 994.20 996.06 996.93 997.88 999.38 1000.48 1001.08 1001.86 1002.61 1002.97 1003.22 1003.54 1004.32 1004.94 1005.29 1005.40 1005.61 1005.94 1006.21 1006.52 1006.62 1006.76 1006.93 1007.20
985.65 984.10 983.42 983.38 983.44 983.10 983.68 985.13 986.96 988.75 989.57 990.44 990.97 991.27 991.38 991.55 992.40 992.98 993.31 995.20 996.38 996.86 998.09 999.58 1000.27 1001.01 1001.55 1001.88 1002.28 1002.79 1003.66 1004.38 1004.62 1005.05 1005.23 1005.40 1005.80 1006.14 1006.49 1006.66 1006.92 1007.22 1007.37
984.22 983.10 983.02 983.36 983.77 984.21 984.84 985.78 986.95 988.02 988.68 989.32 990.08 990.54 990.76 991.95 992.60 992.81 994.26 995.51 997.06 997.55 998.28 999.41 1000.09 1000.52 1001.00 1001.32 1002.12 1002.90 1003.77 1004.23 1004.56 1004.83 1005.13 1005.40 1005.59 1005.96 1006.41 1006.66 1007.01 1007.32 1007.54
984.15 982.85 982.88 983.19 983.66 983.91 984.30 985.53 986.53 987.18 987.99 989.06 989.75 990.98 991.74 992.35 993.05 993.83 994.28 995.21 996.70 997.78 998.62 999.23 999.62 1000.06 1000.57 1001.37 1002.19 1002.90 1003.42 1003.94 1004.23 1004.59 1005.04 1005.34 1005.47 1005.85 1006.29 1006.60 1006.98 1007.32 1007.53
984.42 983.43 982.75 982.90 983.63 984.14 984.80 985.60 986.85 986.26 987.67 988.80 990.25 991.78 992.76 992.85 993.58 994.43 995.15 996.05 996.99 997.84 998.48 999.02 999.40 999.93 1000.84 1001.68 1002.02 1002.60 1003.21 1003.67 1004.06 1004.48 1004.90 1005.19 1005.38 1005.73 1006.07 1006.51 1006.86 1007.28 1007.52
984.82 983.94 983.22 983.20 984.92 985.09 985.30 986.62 987.54 988.99 989.44 990.27 991.36 992.08 992.26 992.74 993.79 994.77 995.68 996.46 997.26 997.94 998.31 998.89 999.75 1000.55 1001.03 1001.41 1002.00 1002.60 1003.04 1003.47 1003.96 1004.40 1004.71 1004.92 1005.29 1005.71 1006.06 1006.34 1006.63 1006.93 1007.10
985.16 984.98 985.17 985.22 985.98 986.71 987.17 988.02 988.68 989.42 990.16 991.03 992.17 992.86 993.00 993.74 994.78 995.87 996.86 997.61 997.83 998.16 998.67 999.59 1000.40 1000.76 1001.11 1001.60 1002.08 1002.56 1003.01 1003.50 1003.92 1004.22 1004.51 1004.82 1005.22 1005.65 1006.02 1006.31 1006.58 1006.83 1007.08
985.87 985.52 985.69 986.12 986.93 987.58 988.54 989.64 990.00 990.60 991.42 992.38 993.10 993.76 994.66 995.54 996.51 997.36 998.20 998.98 999.59 1000.10 1000.48 1000.81 1001.29 1001.64 1001.98 1002.22 1002.34 1002.55 1003.03 1003.40 1003.54 1003.67 1004.08 1004.72 1005.26 1005.71 1005.97 1006.28 1006.54 1006.86 1007.17
986.15 986.06 986.21 986.76 987.44 988.24 989.24 990.27 991.16 991.84 992.66 993.46 994.34 995.41 996.32 997.18 998.20 999.16 999.95 1000.62 1001.09 1001.50 1001.88 1002.16 1002.41 1002.62 1002.81 1003.02 1003.17 1003.28 1003.27 1003.32 1003.36 1003.80 1004.27 1004.92 1005.39 1005.71 1006.10 1006.50 1006.83 1007.20 1007.57
986.92 986.96 987.16 987.90 988.61 989.52 990.35 991.24 992.25 993.28 994.27 995.30 996.23 997.08 998.11 999.06 999.96 1000.83 1001.44 1001.94 1002.36 1002.73 1003.12 1003.22 1003.46 1003.68 1003.75 1003.84 1004.00 1004.02 1004.04 1003.90 1004.10 1004.54 1005.00 1005.48 1005.96 1006.34 1006.68 1006.98 1007.39 1007.75 1008.07
987.76 988.03 988.40 989.27 990.08 991.05 992.05 992.94 993.94 994.88 995.84 996.96 997.99 998.95 999.82 1000.64 1001.43 1002.08 1002.60 1002.99 1003.40 1003.70 1004.11 1004.45 1004.66 1004.59 1004.65 1004.80 1004.88 1004.85 1004.65 1004.76 1005.04 1005.29 1005.63 1006.09 1006.62 1007.22 1007.53 1007.80 1008.11 1008.44 1008.73
Wind_Speed
11 9 8 8 8 7 6 7 7 7 8 9 10 10 9 10 7 8 15 15 14 14 12 14 16 11 13 11 5 4 4 4 5 1 1 2 2 5 3 3 3 3 3
13 10 11 8 7 7 6 6 7 7 6 8 10 11 12 12 9 10 12 13 14 14 15 14 13 10 14 7 6 7 5 5 4 4 2 1 2 3 4 2 1 2 0
12 13 9 9 9 8 8 6 7 6 7 6 8 9 10 12 11 12 13 13 12 9 9 12 13 12 9 7 6 6 4 3 3 4 4 2 1 2 3 1 1 1 2
9 9 9 9 9 8 8 7 6 6 5 6 7 10 11 13 16 15 14 14 14 8 8 11 13 12 13 11 8 7 4 5 3 4 3 3 2 2 3 3 2 0 1
8 9 9 11 11 10 9 9 8 7 7 7 8 9 11 12 12 15 14 12 12 12 9 11 10 11 14 13 8 6 6 3 3 4 3 3 3 3 4 3 3 2 1
4 6 8 11 10 10 8 8 7 7 6 7 11 13 13 11 13 15 16 13 12 11 12 12 9 10 11 15 11 11 9 7 5 5 4 4 4 4 4 4 4 3 2
7 6 7 8 10 12 11 8 8 7 6 9 11 11 14 14 14 17 20 14 12 13 14 10 7 6 11 9 9 8 7 7 8 7 6 5 5 6 5 5 4 3 4
10 12 13 12 13 13 13 12 9 8 9 9 10 12 13 13 16 19 18 15 13 16 14 11 11 11 11 12 10 8 6 5 5 4 5 4 3 4 6 6 6 5 3
15 16 16 17 17 14 14 14 13 10 10 9 10 13 14 14 17 17 17 13 16 14 11 12 12 12 12 15 12 9 6 4 5 8 8 7 2 2 6 5 5 6 2
10 11 11 15 19 21 19 18 15 11 12 9 13 14 15 15 21 18 17 12 14 10 9 12 17 16 17 16 11 10 9 6 6 5 4 3 2 1 4 3 7 6 3
12 13 15 16 18 18 19 17 15 12 11 11 12 13 16 15 20 19 21 14 13 10 8 9 9 19 17 13 11 9 8 10 7 5 4 3 2 2 2 2 4 4 3
15 17 20 20 16 14 14 14 14 13 12 12 13 13 12 17 20 22 22 21 16 11 11 8 9 16 16 14 9 13 17 11 5 5 3 2 3 3 3 3 4 4 3
17 20 18 18 17 17 19 19 14 15 13 13 12 13 12 13 14 20 20 16 15 11 10 12 18 19 17 11 13 15 12 7 6 4 4 3 3 3 4 3 3 4 3
23 25 24 24 26 28 23 21 19 17 15 14 16 14 14 13 11 7 7 8 13 11 16 12 12 12 11 10 7 6 4 5 5 4 4 3 3 3 2 1 2 2 2
22 23 24 20 21 24 27 23 20 21 18 15 14 15 14 14 12 14 15 11 9 13 15 10 9 8 7 5 4 4 4 4 4 4 4 4 3 3 2 1 1 2 2
23 22 16 0 6 6 13 15 19 16 18 23 22 18 16 14 18 19 21 24 25 19 12 11 8 8 8 7 6 4 3 5 4 4 4 4 4 3 3 2 2 2 1
21 17 2 5 4 9 11 13 14 6 13 22 22 22 13 15 20 23 30 27 19 17 12 9 9 8 8 7 6 5 4 4 5 4 3 5 4 4 4 2 2 1 1
16 11 6 6 6 8 9 10 10 12 11 8 11 15 23 24 26 29 25 19 11 10 11 10 9 8 6 5 5 5 4 4 4 4 4 4 4 4 3 3 2 2 1
14 8 6 7 7 8 10 9 8 9 11 12 14 15 16 23 25 19 14 12 11 9 8 8 7 6 6 5 4 7 7 5 5 5 4 4 5 4 3 3 3 2 2
14 10 9 12 12 11 12 13 13 10 13 15 14 13 12 16 14 11 10 11 10 8 7 7 7 6 4 4 5 6 5 5 5 4 4 4 4 4 3 4 4 3 4
8 8 14 13 12 10 13 14 9 11 12 12 11 9 11 13 12 10 10 9 8 8 7 7 6 5 4 5 6 5 5 5 5 4 4 4 4 4 4 4 4 4 3
9 6 12 11 11 13 13 12 11 14 14 14 11 8 12 11 11 11 10 9 9 7 5 6 4 4 4 5 5 5 5 5 5 5 5 5 4 4 4 3 3 3 3
7 4 10 10 12 13 15 13 13 16 15 13 11 12 12 12 11 11 11 9 8 8 7 8 6 7 6 6 4 4 5 4 5 5 5 5 4 4 3 3 3 3 3
4 7 12 10 12 13 14 14 13 14 13 13 13 12 12 12 11 12 10 8 8 9 8 7 7 8 7 6 5 4 5 4 5 6 7 5 4 4 4 5 4 6 5
7 9 11 12 13 14 14 14 14 14 13 12 11 12 11 11 11 10 9 8 8 9 9 8 7 8 9 10 8 7 6 9 9 8 7 8 9 8 6 5 5 6 6
8 10 11 11 12 13 13 13 13 13 12 11 11 11 11 11 10 9 9 9 9 10 11 8 10 12 11 9 9 7 11 11 10 10 8 7 9 7 7 8 9 6 6
Wind_Direction
195 196 197 211 206 206 210 223 226 243 253 263 267 273 267 262 247 251 241 233 205 204 201 204 233 215 236 234 197 197 202 174 187 292 108 128 136 136 138 116 171 192 210
200 189 200 201 200 203 235 231 223 227 231 241 253 250 256 258 255 243 255 255 227 202 206 204 220 202 218 203 183 207 211 210 164 152 145 129 149 140 143 137 257 63 207
191 188 194 195 185 200 217 240 250 234 234 242 265 273 277 268 252 253 250 255 247 208 209 205 210 206 198 198 180 205 208 204 163 133 148 151 158 154 109 113 254 221 96
185 180 190 194 189 192 199 216 243 254 255 240 239 253 266 272 275 254 256 251 258 243 201 192 198 206 201 193 182 190 186 186 132 133 126 152 153 189 126 160 218 221 82
188 200 215 192 191 195 197 204 214 237 249 276 284 267 259 271 270 266 254 253 246 240 219 210 206 190 195 182 175 165 168 181 137 139 148 162 165 149 180 201 176 148 236
227 221 208 191 193 195 205 208 193 217 257 272 284 284 286 267 273 288 260 255 253 219 220 227 208 187 183 168 157 156 170 162 158 146 168 185 193 179 164 185 142 146 223
266 259 237 212 203 202 201 191 194 202 224 265 271 275 284 289 267 267 276 266 245 234 225 209 170 181 156 140 108 123 138 175 157 160 168 190 176 192 172 177 174 159 185
231 239 239 232 223 212 198 197 199 200 203 226 254 265 270 274 283 268 270 272 246 230 220 181 183 168 165 148 135 148 149 131 130 145 161 174 191 211 187 183 177 138 70
241 238 238 239 233 215 205 206 205 204 212 216 242 257 261 269 272 278 270 269 246 226 192 164 168 162 166 136 145 151 139 121 57 96 107 109 81 240 170 121 144 147 144
244 251 257 257 247 236 225 214 214 212 216 223 245 246 258 268 266 264 265 262 252 219 173 178 160 163 167 156 152 160 154 168 157 159 115 95 193 88 171 152 153 159 136
258 257 254 253 247 244 238 228 209 203 210 221 235 251 259 256 263 257 254 250 244 216 165 165 158 156 157 149 151 158 166 144 167 131 121 142 201 177 211 171 156 144 150
266 264 261 252 235 231 225 215 215 206 208 224 235 248 251 255 250 250 248 223 229 192 160 150 156 147 136 134 119 132 131 129 125 119 119 199 189 195 192 194 188 190 201
271 267 263 256 257 245 226 215 209 214 217 226 234 242 251 252 248 239 223 200 176 147 149 147 138 127 123 104 130 134 136 136 130 126 158 213 205 189 174 181 193 198 204
273 268 263 252 242 231 226 221 216 217 222 229 228 229 239 239 230 193 174 152 121 108 112 125 122 110 105 119 111 139 143 130 135 153 193 200 181 119 109 134 138 141 140
273 272 269 268 258 237 213 205 205 208 209 211 214 220 220 226 199 173 157 138 128 133 129 119 120 117 118 123 126 147 125 121 132 165 176 159 134 115 112 112 131 159 155
278 278 279 346 327 38 138 154 162 174 185 202 207 208 218 199 160 156 140 132 132 149 120 131 135 137 143 153 155 140 117 133 161 164 153 137 136 139 162 127 69 75 129
269 282 159 103 89 99 110 133 156 147 195 216 222 218 184 148 139 138 122 132 136 114 126 138 141 146 150 149 134 128 136 171 159 159 156 145 143 137 151 139 132 87 3
303 307 158 144 141 136 144 153 161 172 178 162 159 147 135 136 135 126 130 124 111 104 126 138 139 139 142 131 133 145 155 155 161 158 153 157 139 143 146 153 158 183 179
324 331 153 153 151 142 131 123 133 127 114 121 116 95 117 128 126 131 121 113 120 118 124 128 134 133 130 144 169 161 158 163 161 150 157 158 147 139 148 142 155 199 160
329 326 104 94 96 95 95 100 103 114 120 118 117 124 136 131 121 113 105 114 116 120 125 129 129 116 134 145 136 131 139 146 140 146 158 159 151 149 143 165 169 172 192
286 47 106 126 97 97 104 119 119 117 111 111 117 125 117 114 111 106 105 110 120 126 123 117 133 150 147 138 130 137 139 144 145 149 153 147 136 150 163 174 177 172 167
332 33 102 104 107 105 105 102 110 116 112 108 105 89 81 85 89 86 81 76 66 58 97 107 102 114 120 129 133 130 135 148 155 163 159 153 157 164 162 169 178 172 149
317 38 103 103 107 103 104 112 114 115 111 101 96 92 85 86 84 79 74 65 65 64 55 69 77 79 67 68 60 91 104 124 158 144 127 131 136 145 146 137 136 109 98
324 71 91 96 101 105 105 108 108 105 92 89 88 86 84 82 80 78 75 72 70 65 60 65 63 70 76 68 58 53 67 56 82 87 100 106 102 103 90 86 83 96 97
73 89 89 91 100 102 105 98 93 93 91 90 89 84 83 83 83 81 81 80 76 74 64 59 58 58 57 61 63 60 62 67 80 81 79 85 84 77 83 84 83 78 79
123 100 94 93 97 92 93 93 91 92 90 89 87 87 90 90 88 86 81 82 83 75 70 60 62 64 61 52 53 59 74 75 81 85 91 92 90 81 83 90 90 88 86